Location: Góry Miechowskie
(50.3599°N, 20.1803°E)
Time: 08:21:47
(UTC+00:00)

Courier 1B - Pass Details

Date: 15 September 2024
Orbit: 962 x 1208 km, 28.3° (Epoch: 12 October)

Event Time Altitude Azimuth Distance (km) Brightness Sun altitude
Rises 15:04:44 0° 233° (SW) 3,983 12.0 16.2°
Reaches altitude 10° 15:09:33 10° 206° (SSW) 3,073 10.8 15.4°
Maximum altitude 15:12:26 12° 184° (S) 2,910 10.3 15.0°
Drops below altitude 10° 15:15:22 10° 161° (SSE) 3,116 10.1 14.5°
Sets 15:20:20 0° 135° (SE) 4,100 10.4 13.8°
